Cosmos 1656 - Orbit

View from above orbital plane
View from above orbital plane
View from above satellite
View from above satellite

Ground track
Ground track

The orbit data is extracted from the following two-line orbital elements,

1 15755U 85042A   13143.95618074 -.00000023  00000-0  11364-4 0  4961
2 15755 071.1131 252.0103 0036050 201.5293 158.4319 14.20228952449809
Epoch (UTC): 23 May 2013 22:56:54
Eccentricity: 0.0036050
inclination: 71.1131°
perigee height: 798 km
apogee height: 850 km
right ascension of ascending node: 252.0103°
argument of perigee: 201.5293°
revolutions per day: 14.20228952
mean anomaly at epoch: 158.4319°
orbit number at epoch: 44980

The dashed part of the orbit path shows where the satellite is in the earth's shadow,  

Developed and maintained by Chris Peat, Heavens-Above GmbH. Please read the updated FAQ before sending e-mail. Imprint. DLR